Weather in Aparinskiy

Russia / Rostov Oblast     47°39′20″N   40°54′16″E
temp.,
°C
wind,
m/s
gust,
m/s
humid.,
%
clouds,
%
prec.,
mm/h
press.,
hPa
HPBL,
m
2 march, tue
tue200:000nne228399 0.0 1028115
03:000nw128298 0.0 102885
06:00−2sw23880 0.0 102778
09:00+1wsw588411 0.0 1027469
12:00+4wsw8106485 0.0 10241231
15:00+5wsw9126090 0.0 10211189
18:00+3wsw81370100 0.0 1019829
21:00+2wsw81476100 0.0 1018809
3 march, wed
wed300:00+2wsw81580100 0.0 1015698
03:00+1wsw81396100 0.1 1013709
06:00+1w5997100 2.3 1012420
09:00+1nw6997100 3.4 1015521
12:00+3nnw8106796 0.3 10171263
15:00+3nw796494 0.4 10181451
18:00+1nw6116367 0.2 1020748
21:00−1nw4107033 0.2 1023587
4 march, thu
thu400:00−1wnw37740 0.0 1024320
03:00−1w36750 0.0 1025183
06:00−1wsw48770 0.0 1024253
09:00+2wsw610640 0.0 1024625
12:00+5wsw810520 0.0 10231040
15:00+6wsw811520 0.0 10211106
18:00+3wsw613630 0.0 1019438
21:00+1sw413790 0.0 1019392
5 march, fri
fri500:00+1sw5158237 0.0 1018518
03:00+1sw5148960 0.0 1017535
06:00+1sw6149157 0.0 1016555
09:00+3sw8147938 0.0 1017698
12:00+7sw811670 0.0 1016918
15:00+8sw811600 0.0 10151134
18:00+6sw511660 0.0 1014362
21:00+3ssw48783 0.0 1014198
6 march, sat
sat600:00+3sw5147998 0.0 1013666
03:00+3sw6168499 0.0 1012673
06:00+2sw51688100 0.0 1011641
09:00+5wsw71385100 0.0 1012533
12:00+7wsw6979100 0.0 1012695
15:00+2nnw5996100 2.4 1012471
18:00+1nnw4795100 2.0 1013523
21:00+1n3778100 2.1 1015469